TimeCDT,TemperatureF,Dew PointF,Humidity,Sea Level PressureIn,VisibilityMPH,Wind Direction,Wind SpeedMPH,Gust SpeedMPH,PrecipitationIn,Events,Conditions,WindDirDegrees,DateUTC
12:15 AM,46.4,42.8,87,30.12,5.0,ENE,9.2,-,0.05,,Overcast,60,2013-04-04 05:15:00
12:35 AM,46.4,42.8,87,30.12,5.0,NE,8.1,-,0.09,,Overcast,50,2013-04-04 05:35:00
12:55 AM,46.4,42.8,87,30.12,5.0,NE,9.2,-,0.14,,Overcast,50,2013-04-04 05:55:00
1:15 AM,46.4,42.8,87,30.10,5.0,ENE,12.7,-,0.03,,Overcast,60,2013-04-04 06:15:00
1:35 AM,46.4,44.6,93,30.09,6.0,ENE,10.4,-,0.07,,Overcast,70,2013-04-04 06:35:00
1:55 AM,46.4,44.6,93,30.08,5.0,ENE,12.7,-,0.12,,Overcast,60,2013-04-04 06:55:00
2:15 AM,46.4,42.8,87,30.08,6.0,ENE,10.4,16.1,0.02,,Overcast,70,2013-04-04 07:15:00
2:35 AM,46.4,42.8,87,30.06,5.0,ENE,15.0,-,0.08,,Overcast,70,2013-04-04 07:35:00
2:55 AM,46.4,42.8,87,30.05,7.0,ENE,17.3,21.9,0.12,,Overcast,60,2013-04-04 07:55:00
3:15 AM,46.4,42.8,87,30.04,7.0,ENE,18.4,-,0.03,,Overcast,60,2013-04-04 08:15:00
3:35 AM,46.4,42.8,87,30.04,6.0,East,13.8,18.4,0.10,,Overcast,80,2013-04-04 08:35:00
3:55 AM,46.4,42.8,87,30.03,7.0,ENE,16.1,-,0.11,,Overcast,60,2013-04-04 08:55:00
4:15 AM,46.4,42.8,87,30.02,5.0,East,13.8,-,0.02,,Overcast,80,2013-04-04 09:15:00
4:35 AM,46.4,42.8,87,30.02,5.0,ENE,11.5,-,0.03,,Overcast,60,2013-04-04 09:35:00
4:55 AM,46.4,42.8,87,30.03,6.0,East,11.5,16.1,0.04,,Overcast,80,2013-04-04 09:55:00
5:15 AM,46.4,42.8,87,30.03,5.0,ENE,10.4,-,0.03,,Overcast,60,2013-04-04 10:15:00
5:35 AM,46.4,42.8,87,30.02,7.0,NE,11.5,16.1,0.03,,Overcast,50,2013-04-04 10:35:00
5:55 AM,46.4,42.8,87,30.02,7.0,ENE,12.7,19.6,0.04,,Overcast,70,2013-04-04 10:55:00
6:15 AM,46.4,42.8,87,30.03,10.0,East,8.1,17.3,0.01,,Overcast,80,2013-04-04 11:15:00
6:35 AM,46.4,42.8,87,30.03,8.0,East,11.5,19.6,0.01,,Overcast,80,2013-04-04 11:35:00
6:55 AM,46.4,42.8,87,30.03,3.0,ENE,13.8,20.7,0.03,,Overcast,70,2013-04-04 11:55:00
7:15 AM,44.6,42.8,93,30.05,5.0,ENE,10.4,17.3,0.03,,Overcast,70,2013-04-04 12:15:00
7:35 AM,44.6,42.8,93,30.05,4.0,East,10.4,-,0.04,,Overcast,80,2013-04-04 12:35:00
7:55 AM,44.6,42.8,93,30.05,10.0,East,12.7,-,0.05,,Overcast,80,2013-04-04 12:55:00
8:15 AM,44.6,42.8,93,30.05,10.0,ENE,8.1,-,N/A,,Overcast,70,2013-04-04 13:15:00
8:35 AM,44.6,42.8,93,30.05,8.0,ENE,12.7,-,N/A,,Overcast,70,2013-04-04 13:35:00
8:55 AM,44.6,42.8,93,30.05,3.0,East,12.7,-,0.02,,Overcast,80,2013-04-04 13:55:00
9:15 AM,44.6,42.8,93,30.05,5.0,East,12.7,-,0.06,,Overcast,90,2013-04-04 14:15:00
9:35 AM,44.6,41.0,87,30.06,4.0,East,11.5,17.3,0.14,,Overcast,80,2013-04-04 14:35:00
9:55 AM,44.6,42.8,93,30.06,7.0,East,10.4,-,0.15,,Overcast,80,2013-04-04 14:55:00
10:15 AM,44.6,42.8,93,30.06,6.0,ENE,12.7,-,N/A,,Overcast,70,2013-04-04 15:15:00
10:35 AM,44.6,42.8,93,30.07,6.0,East,10.4,-,N/A,,Overcast,80,2013-04-04 15:35:00
10:55 AM,46.4,42.8,87,30.06,3.0,East,12.7,-,0.01,,Overcast,80,2013-04-04 15:55:00
11:35 AM,46.4,42.8,87,30.05,6.0,East,12.7,18.4,0.01,,Overcast,80,2013-04-04 16:35:00
11:55 AM,46.4,42.8,87,30.05,6.0,East,11.5,-,0.01,,Overcast,80,2013-04-04 16:55:00
12:15 PM,46.4,42.8,87,30.04,6.0,East,10.4,-,N/A,,Overcast,80,2013-04-04 17:15:00
12:35 PM,46.4,42.8,87,30.03,10.0,ENE,12.7,-,N/A,,Overcast,70,2013-04-04 17:35:00
12:55 PM,46.4,42.8,87,30.03,10.0,ENE,9.2,-,N/A,,Overcast,70,2013-04-04 17:55:00
1:15 PM,46.4,42.8,87,30.02,10.0,ENE,13.8,-,N/A,,Overcast,60,2013-04-04 18:15:00
1:35 PM,46.4,41.0,81,30.02,7.0,ENE,10.4,-,N/A,,Overcast,70,2013-04-04 18:35:00
1:55 PM,44.6,42.8,93,30.01,8.0,East,12.7,-,N/A,,Overcast,80,2013-04-04 18:55:00
2:15 PM,44.6,42.8,93,30.01,5.0,East,10.4,-,N/A,,Overcast,80,2013-04-04 19:15:00
2:35 PM,44.6,41.0,87,30.00,8.0,ENE,10.4,17.3,N/A,,Overcast,70,2013-04-04 19:35:00
2:55 PM,44.6,41.0,87,30.00,8.0,East,12.7,18.4,N/A,,Overcast,80,2013-04-04 19:55:00
3:15 PM,44.6,41.0,87,30.00,10.0,East,11.5,-,N/A,,Overcast,80,2013-04-04 20:15:00
3:35 PM,44.6,41.0,87,30.00,5.0,NE,13.8,-,N/A,,Overcast,50,2013-04-04 20:35:00
3:55 PM,44.6,41.0,87,29.99,4.0,NE,10.4,-,N/A,,Overcast,50,2013-04-04 20:55:00
4:15 PM,44.6,41.0,87,29.98,4.0,ENE,12.7,-,N/A,,Overcast,70,2013-04-04 21:15:00
4:35 PM,44.6,41.0,87,29.98,5.0,ENE,11.5,-,N/A,,Overcast,70,2013-04-04 21:35:00
4:55 PM,44.6,41.0,87,29.98,10.0,East,9.2,-,N/A,,Overcast,80,2013-04-04 21:55:00
5:15 PM,44.6,41.0,87,29.98,10.0,NE,9.2,-,N/A,,Overcast,50,2013-04-04 22:15:00
5:35 PM,44.6,39.2,81,29.98,10.0,ENE,10.4,-,N/A,,Overcast,60,2013-04-04 22:35:00
5:55 PM,44.6,39.2,81,29.98,10.0,NE,9.2,-,N/A,,Overcast,50,2013-04-04 22:55:00
6:15 PM,44.6,41.0,87,29.98,10.0,NE,10.4,-,N/A,,Overcast,50,2013-04-04 23:15:00
6:35 PM,44.6,39.2,81,29.98,9.0,NE,11.5,-,N/A,,Overcast,50,2013-04-04 23:35:00
6:55 PM,44.6,39.2,81,29.98,10.0,NE,10.4,-,N/A,,Overcast,40,2013-04-04 23:55:00
7:15 PM,42.8,39.2,87,29.97,10.0,NE,11.5,-,N/A,,Overcast,40,2013-04-05 00:15:00
7:35 PM,42.8,39.2,87,29.97,10.0,NE,9.2,-,N/A,,Overcast,40,2013-04-05 00:35:00
7:55 PM,42.8,39.2,87,29.98,10.0,NE,8.1,-,N/A,,Overcast,40,2013-04-05 00:55:00
8:15 PM,42.8,39.2,87,29.98,10.0,NE,9.2,-,N/A,,Overcast,50,2013-04-05 01:15:00
8:35 PM,42.8,39.2,87,29.98,10.0,NE,9.2,-,N/A,,Overcast,40,2013-04-05 01:35:00
8:55 PM,42.8,39.2,87,29.99,10.0,NE,8.1,-,N/A,,Overcast,40,2013-04-05 01:55:00
9:15 PM,42.8,39.2,87,29.99,10.0,NE,8.1,-,N/A,,Overcast,40,2013-04-05 02:15:00
9:35 PM,42.8,39.2,87,29.99,10.0,ENE,9.2,-,N/A,,Overcast,60,2013-04-05 02:35:00
9:55 PM,42.8,39.2,87,29.99,10.0,NNE,10.4,-,N/A,,Overcast,30,2013-04-05 02:55:00
10:15 PM,42.8,39.2,87,30.00,10.0,NE,9.2,-,N/A,,Overcast,50,2013-04-05 03:15:00
10:35 PM,42.8,39.2,87,29.99,10.0,NE,8.1,-,N/A,,Overcast,50,2013-04-05 03:35:00
10:55 PM,42.8,39.2,87,30.00,10.0,NE,5.8,-,N/A,,Overcast,40,2013-04-05 03:55:00
11:15 PM,42.8,39.2,87,30.00,10.0,NE,8.1,-,N/A,,Overcast,40,2013-04-05 04:15:00
11:35 PM,42.8,39.2,87,30.00,10.0,NE,8.1,-,N/A,,Overcast,40,2013-04-05 04:35:00
11:55 PM,42.8,39.2,87,29.99,10.0,NE,8.1,-,N/A,,Overcast,40,2013-04-05 04:55:00